,,,PA_Meas_PMT16A,,PR_Meas_QMR101_102,,RH_Meas_QMH101,,SR_Meas_QMS101,,TA_Meas_QMH101,,GenWind,,GenWind,
date,time,status,PA,status,PR,status,RH,status,SR,status,TA,status,DirAvg,status,SpdAvg,
2008-08-02, 00:00:04,VALID,1009,VALID,0,VALID,92.8664,VALID,0,VALID,24.7464,VALID,248,VALID,0,
2008-08-02, 00:01:04,VALID,1009.01,VALID,0,VALID,93.0494,VALID,0,VALID,24.7659,VALID,248,VALID,0.245312,
2008-08-02, 00:02:04,VALID,1009.01,VALID,0,VALID,93.202,VALID,0.105969,VALID,24.725,VALID,248,VALID,0.207422,
2008-08-02, 00:03:04,VALID,1009.01,VALID,0,VALID,93.2096,VALID,0,VALID,24.7055,VALID,248,VALID,0.172266,
2008-08-02, 00:04:04,VALID,1009,VALID,0,VALID,93.2248,VALID,0,VALID,24.6879,VALID,248,VALID,0.0992187,
2008-08-02, 00:05:04,VALID,1008.95,VALID,0,VALID,93.3011,VALID,0,VALID,24.6489,VALID,248,VALID,0.265625,
2008-08-02, 00:06:04,VALID,1008.96,VALID,0,VALID,93.2248,VALID,0,VALID,24.6099,VALID,248,VALID,0.0453125,
2008-08-02, 00:07:04,VALID,1008.98,VALID,0,VALID,93.0723,VALID,0,VALID,24.5515,VALID,248,VALID,0,
2008-08-02, 00:08:04,VALID,1008.96,VALID,0,VALID,93.1715,VALID,0,VALID,24.5125,VALID,248,VALID,0,
2008-08-02, 00:09:04,VALID,1008.98,VALID,0,VALID,93.2858,VALID,0,VALID,24.5125,VALID,248,VALID,0,
2008-08-02, 00:10:04,VALID,1009.01,VALID,0,VALID,93.446,VALID,0,VALID,24.4735,VALID,248,VALID,0.157031,
2008-08-02, 00:11:04,VALID,1009.01,VALID,0,VALID,93.446,VALID,0,VALID,24.454,VALID,248,VALID,0.271484,
2008-08-02, 00:12:04,VALID,1009.01,VALID,0,VALID,93.6748,VALID,0,VALID,24.4327,VALID,248,VALID,0.0453125,
2008-08-02, 00:13:04,VALID,1009.02,VALID,0,VALID,93.7663,VALID,0,VALID,24.3937,VALID,247,VALID,0.00234375,
2008-08-02, 00:14:04,VALID,1009.02,VALID,0,VALID,93.9188,VALID,0,VALID,24.415,VALID,248,VALID,0,
2008-08-02, 00:15:04,VALID,1009.01,VALID,0,VALID,93.995,VALID,0.105969,VALID,24.3956,VALID,247,VALID,0.0417969,
2008-08-02, 00:16:04,VALID,1009.02,VALID,0,VALID,94.0789,VALID,0,VALID,24.3761,VALID,248,VALID,0.167578,
2008-08-02, 00:17:04,VALID,1009,VALID,0,VALID,94.1399,VALID,0,VALID,24.3761,VALID,247,VALID,0.1875,
2008-08-02, 00:18:04,VALID,1008.97,VALID,0,VALID,94.2009,VALID,0,VALID,24.3566,VALID,247,VALID,0.186328,
2008-08-02, 00:19:04,VALID,1008.97,VALID,0,VALID,94.2086,VALID,0,VALID,24.3371,VALID,247,VALID,0.151562,
2008-08-02, 00:20:04,VALID,1008.97,VALID,0,VALID,94.2619,VALID,0,VALID,24.3176,VALID,249,VALID,0.286719,
2008-08-02, 00:21:04,VALID,1008.96,VALID,0,VALID,94.3001,VALID,0,VALID,24.2981,VALID,257,VALID,0.236719,
2008-08-02, 00:22:04,VALID,1008.95,VALID,0,VALID,94.3229,VALID,0,VALID,24.2981,VALID,257,VALID,0.152734,
2008-08-02, 00:23:04,VALID,1008.96,VALID,0,VALID,94.3077,VALID,0,VALID,24.2591,VALID,257,VALID,0.210938,
2008-08-02, 00:24:04,VALID,1008.9,VALID,0,VALID,94.3534,VALID,0,VALID,24.2591,VALID,257,VALID,0.323828,
2008-08-02, 00:25:04,VALID,1008.9,VALID,0,VALID,94.3534,VALID,0,VALID,24.2396,VALID,257,VALID,0.141797,
2008-08-02, 00:26:04,VALID,1008.91,VALID,0,VALID,94.3077,VALID,0,VALID,24.2202,VALID,257,VALID,0.169141,
2008-08-02, 00:27:04,VALID,1008.89,VALID,0,VALID,94.3534,VALID,0,VALID,24.2007,VALID,257,VALID,0.208984,
2008-08-02, 00:28:04,VALID,1008.89,VALID,0,VALID,94.3763,VALID,0,VALID,24.2007,VALID,257,VALID,0.0796875,
2008-08-02, 00:29:04,VALID,1008.89,VALID,0,VALID,94.3992,VALID,0,VALID,24.1812,VALID,257,VALID,0.0570313,
2008-08-02, 00:30:04,VALID,1008.87,VALID,0,VALID,94.3153,VALID,0,VALID,24.1227,VALID,257,VALID,0.324609,
2008-08-02, 00:31:04,VALID,1008.88,VALID,0,VALID,94.3229,VALID,0,VALID,24.1227,VALID,257,VALID,0.216797,
2008-08-02, 00:32:04,VALID,1008.86,VALID,0,VALID,94.3534,VALID,0,VALID,24.0819,VALID,257,VALID,0.211719,
2008-08-02, 00:33:04,VALID,1008.85,VALID,0,VALID,94.4145,VALID,0.105969,VALID,24.1032,VALID,257,VALID,0,
2008-08-02, 00:34:04,VALID,1008.85,VALID,0,VALID,94.5136,VALID,0,VALID,24.0819,VALID,257,VALID,0,
2008-08-02, 00:35:04,VALID,1008.81,VALID,0,VALID,94.5746,VALID,0,VALID,24.1227,VALID,343,VALID,0.491016,
2008-08-02, 00:36:04,VALID,1008.83,VALID,0,VALID,94.5822,VALID,0,VALID,24.0837,VALID,22,VALID,0.678906,
2008-08-02, 00:37:04,VALID,1008.83,VALID,0,VALID,94.4907,VALID,0,VALID,24.0643,VALID,49,VALID,0.421094,
2008-08-02, 00:38:04,VALID,1008.82,VALID,0,VALID,94.5136,VALID,0,VALID,24.0448,VALID,59,VALID,0.372266,
2008-08-02, 00:39:04,VALID,1008.79,VALID,0,VALID,94.5288,VALID,0,VALID,24.0253,VALID,59,VALID,0.351953,
2008-08-02, 00:40:04,VALID,1008.79,VALID,0,VALID,94.6432,VALID,0,VALID,24.0448,VALID,3,VALID,0.34375,
2008-08-02, 00:41:04,VALID,1008.79,VALID,0,VALID,94.6585,VALID,0,VALID,24.0448,VALID,3,VALID,0.355078,
2008-08-02, 00:42:04,VALID,1008.77,VALID,0,VALID,94.6814,VALID,0.105969,VALID,24.0235,VALID,346,VALID,0.616016,
2008-08-02, 00:43:04,VALID,1008.77,VALID,0,VALID,94.7119,VALID,0,VALID,24.0643,VALID,346,VALID,0.496094,
2008-08-02, 00:44:04,VALID,1008.79,VALID,0,VALID,94.6508,VALID,0,VALID,24.0448,VALID,346,VALID,0.103906,
2008-08-02, 00:45:04,VALID,1008.81,VALID,0,VALID,94.6127,VALID,0,VALID,24.0448,VALID,346,VALID,0.0355469,
2008-08-02, 00:46:04,VALID,1008.79,VALID,0,VALID,94.5975,VALID,0,VALID,24.0058,VALID,347,VALID,0.282031,
2008-08-02, 00:47:04,VALID,1008.79,VALID,0,VALID,94.5975,VALID,0,VALID,24.0058,VALID,50,VALID,0.579297,
2008-08-02, 00:48:04,VALID,1008.76,VALID,0,VALID,94.6051,VALID,0,VALID,23.965,VALID,53,VALID,0.441406,
2008-08-02, 00:49:04,VALID,1008.76,VALID,0,VALID,94.5822,VALID,0,VALID,23.965,VALID,52,VALID,0.40625,
2008-08-02, 00:50:04,VALID,1008.74,VALID,0,VALID,94.5593,VALID,0,VALID,23.926,VALID,43,VALID,0.125781,
2008-08-02, 00:51:04,VALID,1008.76,VALID,0,VALID,94.628,VALID,0,VALID,23.9473,VALID,43,VALID,0.189844,
2008-08-02, 00:52:04,VALID,1008.75,VALID,0,VALID,94.6737,VALID,0,VALID,23.9668,VALID,43,VALID,0.282422,
2008-08-02, 00:53:04,VALID,1008.73,VALID,0,VALID,94.7195,VALID,0,VALID,23.9473,VALID,43,VALID,0.385547,
2008-08-02, 00:54:04,VALID,1008.74,VALID,0,VALID,94.7042,VALID,0,VALID,23.9278,VALID,43,VALID,0.460547,
2008-08-02, 00:55:04,VALID,1008.75,VALID,0,VALID,94.7042,VALID,0,VALID,23.9084,VALID,43,VALID,0.382031,
2008-08-02, 00:56:04,VALID,1008.72,VALID,0,VALID,94.7271,VALID,0,VALID,23.9278,VALID,43,VALID,0.0957031,
2008-08-02, 00:57:04,VALID,1008.74,VALID,0,VALID,94.7576,VALID,0,VALID,23.9278,VALID,43,VALID,0,
2008-08-02, 00:58:04,VALID,1008.71,VALID,0,VALID,94.7881,VALID,0,VALID,23.9278,VALID,43,VALID,0,
2008-08-02, 00:59:04,VALID,1008.72,VALID,0,VALID,94.8186,VALID,0,VALID,23.9084,VALID,43,VALID,0.174609,
2008-08-02, 01:00:04,VALID,1008.72,VALID,0,VALID,94.8262,VALID,0.105969,VALID,23.9278,VALID,43,VALID,0.126563,
2008-08-02, 01:01:04,VALID,1008.74,VALID,0,VALID,94.8568,VALID,0,VALID,23.9278,VALID,43,VALID,0.190625,
2008-08-02, 01:02:04,VALID,1008.7,VALID,0,VALID,94.8796,VALID,0,VALID,23.9278,VALID,43,VALID,0.170312,
2008-08-02, 01:03:04,VALID,1008.72,VALID,0,VALID,94.8873,VALID,0,VALID,23.9278,VALID,43,VALID,0,
2008-08-02, 01:04:04,VALID,1008.68,VALID,0,VALID,94.9025,VALID,0,VALID,23.8871,VALID,43,VALID,0.248828,
2008-08-02, 01:05:04,VALID,1008.67,VALID,0,VALID,94.9101,VALID,0.105969,VALID,23.8889,VALID,43,VALID,0.305469,
2008-08-02, 01:06:04,VALID,1008.65,VALID,0,VALID,94.9025,VALID,0,VALID,23.8889,VALID,43,VALID,0.189844,
2008-08-02, 01:07:04,VALID,1008.66,VALID,0,VALID,94.9025,VALID,0,VALID,23.8676,VALID,43,VALID,0.0277344,
2008-08-02, 01:08:04,VALID,1008.67,VALID,0,VALID,94.933,VALID,0,VALID,23.8676,VALID,43,VALID,0,
2008-08-02, 01:09:04,VALID,1008.67,VALID,0,VALID,94.9406,VALID,0,VALID,23.8889,VALID,43,VALID,0,
2008-08-02, 01:10:04,VALID,1008.67,VALID,0,VALID,94.933,VALID,0,VALID,23.8694,VALID,43,VALID,0,
2008-08-02, 01:11:04,VALID,1008.69,VALID,0,VALID,94.933,VALID,0,VALID,23.8889,VALID,43,VALID,0,
2008-08-02, 01:12:04,VALID,1008.69,VALID,0,VALID,94.9559,VALID,0,VALID,23.8694,VALID,43,VALID,0,
2008-08-02, 01:13:04,VALID,1008.72,VALID,0,VALID,94.9635,VALID,0,VALID,23.8694,VALID,43,VALID,0,
2008-08-02, 01:14:04,VALID,1008.72,VALID,0,VALID,94.9864,VALID,0,VALID,23.8694,VALID,43,VALID,0.221484,
2008-08-02, 01:15:04,VALID,1008.7,VALID,0,VALID,94.9864,VALID,0,VALID,23.8481,VALID,43,VALID,0.235547,
2008-08-02, 01:16:04,VALID,1008.67,VALID,0,VALID,94.9559,VALID,0.105969,VALID,23.8499,VALID,43,VALID,0.305078,
2008-08-02, 01:17:04,VALID,1008.73,VALID,0,VALID,94.9711,VALID,0,VALID,23.8499,VALID,43,VALID,0.165234,
2008-08-02, 01:18:04,VALID,1008.69,VALID,0,VALID,94.9788,VALID,0,VALID,23.8499,VALID,43,VALID,0,
2008-08-02, 01:19:04,VALID,1008.68,VALID,0,VALID,94.9788,VALID,0,VALID,23.8499,VALID,43,VALID,0.105469,
2008-08-02, 01:20:04,VALID,1008.69,VALID,0,VALID,94.9635,VALID,0,VALID,23.8304,VALID,43,VALID,0.160547,
2008-08-02, 01:21:04,VALID,1008.73,VALID,0,VALID,94.933,VALID,0,VALID,23.8304,VALID,43,VALID,0,
2008-08-02, 01:22:04,VALID,1008.71,VALID,0,VALID,94.9025,VALID,0,VALID,23.8109,VALID,43,VALID,0.103906,
2008-08-02, 01:23:04,VALID,1008.71,VALID,0,VALID,94.9178,VALID,0,VALID,23.7914,VALID,43,VALID,0.157031,
2008-08-02, 01:24:04,VALID,1008.72,VALID,0,VALID,94.9025,VALID,0,VALID,23.772,VALID,43,VALID,0.199609,
2008-08-02, 01:25:04,VALID,1008.73,VALID,0,VALID,94.8873,VALID,0,VALID,23.7507,VALID,43,VALID,0.179688,
2008-08-02, 01:26:05,VALID,1008.74,VALID,0,VALID,94.9101,VALID,0,VALID,23.7525,VALID,43,VALID,0.277344,
2008-08-02, 01:27:05,VALID,1008.76,VALID,0,VALID,94.933,VALID,0,VALID,23.772,VALID,36,VALID,0.334766,
2008-08-02, 01:28:05,VALID,1008.76,VALID,0,VALID,94.9406,VALID,0.105969,VALID,23.772,VALID,36,VALID,0.0769531,
2008-08-02, 01:29:05,VALID,1008.77,VALID,0,VALID,94.933,VALID,0,VALID,23.7117,VALID,36,VALID,0.201953,
2008-08-02, 01:30:05,VALID,1008.77,VALID,0,VALID,94.933,VALID,0,VALID,23.7135,VALID,36,VALID,0.201953,
2008-08-02, 01:31:05,VALID,1008.77,VALID,0,VALID,94.9101,VALID,0.105969,VALID,23.6922,VALID,36,VALID,0.448828,
2008-08-02, 01:32:05,VALID,1008.82,VALID,0,VALID,94.9406,VALID,0,VALID,23.694,VALID,36,VALID,0.307813,
2008-08-02, 01:33:05,VALID,1008.81,VALID,0,VALID,94.994,VALID,0,VALID,23.7135,VALID,16,VALID,0.338281,
2008-08-02, 01:34:05,VALID,1008.83,VALID,0,VALID,95.0169,VALID,0,VALID,23.7135,VALID,36,VALID,0.735156,
2008-08-02, 01:35:05,VALID,1008.84,VALID,0,VALID,95.0245,VALID,0,VALID,23.7135,VALID,36,VALID,0.377734,
2008-08-02, 01:36:05,VALID,1008.83,VALID,0,VALID,95.0321,VALID,0,VALID,23.6727,VALID,36,VALID,0.411719,
2008-08-02, 01:37:05,VALID,1008.86,VALID,0,VALID,95.0169,VALID,0,VALID,23.7135,VALID,36,VALID,0.407813,
2008-08-02, 01:38:05,VALID,1008.89,VALID,0,VALID,95.0016,VALID,0.105969,VALID,23.694,VALID,36,VALID,0.514063,
2008-08-02, 01:39:05,VALID,1008.88,VALID,0,VALID,95.0398,VALID,0,VALID,23.694,VALID,16,VALID,0.463281,
2008-08-02, 01:40:05,VALID,1008.88,VALID,0,VALID,95.0779,VALID,0,VALID,23.694,VALID,353,VALID,0.469141,
2008-08-02, 01:41:05,VALID,1008.9,VALID,0,VALID,95.0931,VALID,0.105969,VALID,23.694,VALID,354,VALID,0.241016,
2008-08-02, 01:42:05,VALID,1008.89,VALID,0,VALID,95.0855,VALID,0,VALID,23.694,VALID,15,VALID,0.418359,
2008-08-02, 01:43:05,VALID,1008.91,VALID,0,VALID,95.1084,VALID,0,VALID,23.6922,VALID,66,VALID,0.492969,
2008-08-02, 01:44:05,VALID,1008.89,VALID,0,VALID,95.1084,VALID,0,VALID,23.694,VALID,66,VALID,0.35,
2008-08-02, 01:45:05,VALID,1008.89,VALID,0,VALID,95.1236,VALID,0,VALID,23.7135,VALID,66,VALID,0.126563,
2008-08-02, 01:46:05,VALID,1008.84,VALID,0,VALID,95.1313,VALID,0.105969,VALID,23.7135,VALID,56,VALID,0.309766,
2008-08-02, 01:47:05,VALID,1008.82,VALID,0,VALID,95.1313,VALID,0,VALID,23.7135,VALID,40,VALID,0.182031,
2008-08-02, 01:48:05,VALID,1008.79,VALID,0,VALID,95.116,VALID,0,VALID,23.7135,VALID,40,VALID,0.0777344,
2008-08-02, 01:49:05,VALID,1008.77,VALID,0,VALID,95.1084,VALID,0,VALID,23.7135,VALID,40,VALID,0,
2008-08-02, 01:50:05,VALID,1008.77,VALID,0,VALID,95.1008,VALID,0,VALID,23.6922,VALID,40,VALID,0,
2008-08-02, 01:51:05,VALID,1008.73,VALID,0,VALID,95.0855,VALID,0,VALID,23.733,VALID,40,VALID,0,
2008-08-02, 01:52:05,VALID,1008.71,VALID,0,VALID,95.116,VALID,0,VALID,23.7117,VALID,40,VALID,0,
2008-08-02, 01:53:05,VALID,1008.68,VALID,0,VALID,95.1008,VALID,0.105969,VALID,23.733,VALID,40,VALID,0.246875,
2008-08-02, 01:54:05,VALID,1008.7,VALID,0,VALID,95.1008,VALID,0,VALID,23.7117,VALID,40,VALID,0.0199219,
2008-08-02, 01:55:05,VALID,1008.67,VALID,0,VALID,95.0855,VALID,0,VALID,23.733,VALID,40,VALID,0,
2008-08-02, 01:56:05,VALID,1008.67,VALID,0,VALID,95.0626,VALID,0,VALID,23.7117,VALID,40,VALID,0,
2008-08-02, 01:57:05,VALID,1008.68,VALID,0,VALID,95.0703,VALID,0,VALID,23.7135,VALID,40,VALID,0,
2008-08-02, 01:58:05,VALID,1008.68,VALID,0,VALID,95.055,VALID,0.105969,VALID,23.6922,VALID,40,VALID,0,
2008-08-02, 01:59:05,VALID,1008.69,VALID,0,VALID,95.055,VALID,0,VALID,23.733,VALID,40,VALID,0.0140625,
2008-08-02, 02:00:05,VALID,1008.7,VALID,0,VALID,95.0474,VALID,0,VALID,23.7135,VALID,40,VALID,0.463672,
2008-08-02, 02:01:05,VALID,1008.7,VALID,0,VALID,94.9711,VALID,0.105969,VALID,23.6745,VALID,40,VALID,0.458984,
2008-08-02, 02:02:05,VALID,1008.68,VALID,0,VALID,94.9559,VALID,0,VALID,23.655,VALID,40,VALID,0.310547,
2008-08-02, 02:03:05,VALID,1008.72,VALID,0,VALID,94.9559,VALID,0,VALID,23.6356,VALID,40,VALID,0.402734,
2008-08-02, 02:04:05,VALID,1008.7,VALID,0,VALID,94.9483,VALID,0,VALID,23.6161,VALID,40,VALID,0.245312,
2008-08-02, 02:05:05,VALID,1008.67,VALID,0,VALID,94.9406,VALID,0,VALID,23.5948,VALID,40,VALID,0.255078,
2008-08-02, 02:06:05,VALID,1008.65,VALID,0,VALID,94.9864,VALID,0.105969,VALID,23.5948,VALID,16,VALID,0.493359,
2008-08-02, 02:07:05,VALID,1008.63,VALID,0,VALID,95.0093,VALID,0,VALID,23.6161,VALID,1,VALID,0.351953,
2008-08-02, 02:08:05,VALID,1008.63,VALID,0,VALID,95.0474,VALID,0.105969,VALID,23.6161,VALID,343,VALID,0.248047,
2008-08-02, 02:09:05,VALID,1008.61,VALID,0,VALID,95.0169,VALID,0,VALID,23.6161,VALID,344,VALID,0.221875,
2008-08-02, 02:10:05,VALID,1008.6,VALID,0,VALID,95.0093,VALID,0,VALID,23.5966,VALID,344,VALID,0.269531,
2008-08-02, 02:11:05,VALID,1008.62,VALID,0,VALID,94.9864,VALID,0,VALID,23.5771,VALID,344,VALID,0.244141,
2008-08-02, 02:12:05,VALID,1008.58,VALID,0,VALID,94.9864,VALID,0,VALID,23.5576,VALID,44,VALID,0.440625,
2008-08-02, 02:13:05,VALID,1008.57,VALID,0,VALID,94.9788,VALID,0.105969,VALID,23.5169,VALID,44,VALID,0.414453,
2008-08-02, 02:14:05,VALID,1008.56,VALID,0,VALID,94.9635,VALID,0.105969,VALID,23.5381,VALID,44,VALID,0.212109,
2008-08-02, 02:15:05,VALID,1008.54,VALID,0,VALID,95.0016,VALID,0,VALID,23.5186,VALID,18,VALID,0.31875,
2008-08-02, 02:16:05,VALID,1008.52,VALID,0,VALID,95.0016,VALID,0,VALID,23.5186,VALID,18,VALID,0,
2008-08-02, 02:17:05,VALID,1008.51,VALID,0,VALID,95.0245,VALID,0,VALID,23.5186,VALID,18,VALID,0,
2008-08-02, 02:18:05,VALID,1008.52,VALID,0,VALID,95.0321,VALID,0,VALID,23.4992,VALID,18,VALID,0.254687,
2008-08-02, 02:19:05,VALID,1008.47,VALID,0,VALID,95.0703,VALID,0,VALID,23.4992,VALID,18,VALID,0.00195313,
2008-08-02, 02:20:05,VALID,1008.48,VALID,0,VALID,95.0626,VALID,0,VALID,23.4779,VALID,18,VALID,0.0757812,
2008-08-02, 02:21:05,VALID,1008.47,VALID,0,VALID,95.0931,VALID,0,VALID,23.5186,VALID,18,VALID,0.158203,
2008-08-02, 02:22:05,VALID,1008.46,VALID,0,VALID,95.1008,VALID,0,VALID,23.4992,VALID,18,VALID,0,
2008-08-02, 02:23:05,VALID,1008.47,VALID,0,VALID,95.1084,VALID,0,VALID,23.4779,VALID,18,VALID,0.084375,
2008-08-02, 02:24:05,VALID,1008.42,VALID,0,VALID,95.1389,VALID,0,VALID,23.4797,VALID,18,VALID,0.117188,
2008-08-02, 02:25:05,VALID,1008.42,VALID,0,VALID,95.1389,VALID,0,VALID,23.4992,VALID,18,VALID,0.263281,
2008-08-02, 02:26:05,VALID,1008.43,VALID,0,VALID,95.1084,VALID,0,VALID,23.4797,VALID,18,VALID,0.0582031,
2008-08-02, 02:27:05,VALID,1008.41,VALID,0,VALID,95.1313,VALID,0,VALID,23.4797,VALID,18,VALID,0,
2008-08-02, 02:28:05,VALID,1008.4,VALID,0,VALID,95.1236,VALID,0,VALID,23.4602,VALID,18,VALID,0,
2008-08-02, 02:29:05,VALID,1008.43,VALID,0,VALID,95.116,VALID,0,VALID,23.4602,VALID,18,VALID,0.00195313,
2008-08-02, 02:30:05,VALID,1008.43,VALID,0,VALID,95.1465,VALID,0,VALID,23.4389,VALID,18,VALID,0,
2008-08-02, 02:31:05,VALID,1008.44,VALID,0,VALID,95.1389,VALID,0.105969,VALID,23.4602,VALID,18,VALID,0.0613281,
2008-08-02, 02:32:05,VALID,1008.43,VALID,0,VALID,95.1389,VALID,0,VALID,23.4797,VALID,18,VALID,0,
2008-08-02, 02:33:05,VALID,1008.43,VALID,0,VALID,95.1465,VALID,0,VALID,23.4407,VALID,18,VALID,0,
2008-08-02, 02:34:05,VALID,1008.42,VALID,0,VALID,95.1313,VALID,0,VALID,23.4212,VALID,18,VALID,0.3,
2008-08-02, 02:35:05,VALID,1008.4,VALID,0,VALID,95.1389,VALID,0,VALID,23.4407,VALID,18,VALID,0.434766,
2008-08-02, 02:36:05,VALID,1008.4,VALID,0,VALID,95.1542,VALID,0,VALID,23.4212,VALID,18,VALID,0.423438,
2008-08-02, 02:37:05,VALID,1008.4,VALID,0,VALID,95.1236,VALID,0,VALID,23.4212,VALID,28,VALID,0.435937,
2008-08-02, 02:38:05,VALID,1008.38,VALID,0,VALID,95.1389,VALID,0.105969,VALID,23.4017,VALID,36,VALID,0.352734,
2008-08-02, 02:39:05,VALID,1008.38,VALID,0,VALID,95.1465,VALID,0,VALID,23.4212,VALID,36,VALID,0.38125,
2008-08-02, 02:40:05,VALID,1008.39,VALID,0,VALID,95.1618,VALID,0,VALID,23.4212,VALID,59,VALID,0.239453,
2008-08-02, 02:41:05,VALID,1008.38,VALID,0,VALID,95.1542,VALID,0.105969,VALID,23.4212,VALID,59,VALID,0,
2008-08-02, 02:42:05,VALID,1008.35,VALID,0,VALID,95.1694,VALID,0.105969,VALID,23.4194,VALID,59,VALID,0.143359,
2008-08-02, 02:43:05,VALID,1008.33,VALID,0,VALID,95.1618,VALID,0,VALID,23.4407,VALID,59,VALID,0.253516,
2008-08-02, 02:44:05,VALID,1008.38,VALID,0,VALID,95.1618,VALID,0,VALID,23.4212,VALID,59,VALID,0.0730469,
2008-08-02, 02:45:05,VALID,1008.38,VALID,0,VALID,95.1542,VALID,0,VALID,23.4212,VALID,59,VALID,0,
2008-08-02, 02:46:05,VALID,1008.36,VALID,0,VALID,95.1389,VALID,0,VALID,23.4017,VALID,59,VALID,0,
2008-08-02, 02:47:05,VALID,1008.39,VALID,0,VALID,95.1465,VALID,0.105969,VALID,23.4,VALID,59,VALID,0,
2008-08-02, 02:48:05,VALID,1008.36,VALID,0,VALID,95.1465,VALID,0,VALID,23.4017,VALID,59,VALID,0,
2008-08-02, 02:49:05,VALID,1008.35,VALID,0,VALID,95.1542,VALID,0,VALID,23.4212,VALID,59,VALID,0.225,
2008-08-02, 02:50:05,VALID,1008.33,VALID,0,VALID,95.1618,VALID,0,VALID,23.4212,VALID,59,VALID,0.116797,
2008-08-02, 02:51:05,VALID,1008.34,VALID,0,VALID,95.116,VALID,0,VALID,23.3823,VALID,59,VALID,0.0210938,
2008-08-02, 02:52:05,VALID,1008.31,VALID,0,VALID,95.1236,VALID,0,VALID,23.3823,VALID,59,VALID,0,
2008-08-02, 02:53:05,VALID,1008.3,VALID,0,VALID,95.116,VALID,0.105969,VALID,23.361,VALID,59,VALID,0,
2008-08-02, 02:54:05,VALID,1008.3,VALID,0,VALID,95.1389,VALID,0,VALID,23.3823,VALID,59,VALID,0.0339844,
2008-08-02, 02:55:05,VALID,1008.28,VALID,0,VALID,95.1465,VALID,0,VALID,23.3823,VALID,59,VALID,0.253906,
2008-08-02, 02:56:05,VALID,1008.3,VALID,0,VALID,95.1465,VALID,0,VALID,23.3823,VALID,42,VALID,0.260547,
2008-08-02, 02:57:05,VALID,1008.28,VALID,0,VALID,95.1313,VALID,0,VALID,23.3805,VALID,42,VALID,0.046875,
2008-08-02, 02:58:05,VALID,1008.29,VALID,0,VALID,95.1694,VALID,0,VALID,23.4017,VALID,42,VALID,0.00820312,
2008-08-02, 02:59:05,VALID,1008.29,VALID,0,VALID,95.1542,VALID,0,VALID,23.4017,VALID,42,VALID,0,
2008-08-02, 03:00:05,VALID,1008.28,VALID,0,VALID,95.1008,VALID,0,VALID,23.3823,VALID,42,VALID,0.233203,
2008-08-02, 03:01:05,VALID,1008.3,VALID,0,VALID,95.0931,VALID,0,VALID,23.3628,VALID,42,VALID,0.126563,
2008-08-02, 03:02:05,VALID,1008.29,VALID,0,VALID,95.0626,VALID,0,VALID,23.3628,VALID,42,VALID,0.117969,
2008-08-02, 03:03:05,VALID,1008.26,VALID,0,VALID,95.0703,VALID,0,VALID,23.3026,VALID,42,VALID,0.203125,
2008-08-02, 03:04:05,VALID,1008.26,VALID,0,VALID,95.0626,VALID,0,VALID,23.3433,VALID,42,VALID,0.149609,
2008-08-02, 03:05:05,VALID,1008.23,VALID,0,VALID,95.0474,VALID,0,VALID,23.3026,VALID,42,VALID,0.00585938,
2008-08-02, 03:06:05,VALID,1008.21,VALID,0,VALID,95.0703,VALID,0,VALID,23.3238,VALID,42,VALID,0,
2008-08-02, 03:07:05,VALID,1008.19,VALID,0,VALID,95.1008,VALID,0,VALID,23.3238,VALID,42,VALID,0.149219,
2008-08-02, 03:08:05,VALID,1008.2,VALID,0,VALID,95.1084,VALID,0,VALID,23.3238,VALID,42,VALID,0.0574219,
2008-08-02, 03:09:05,VALID,1008.16,VALID,0,VALID,95.0779,VALID,0.105969,VALID,23.3043,VALID,42,VALID,0.0316406,
2008-08-02, 03:10:05,VALID,1008.19,VALID,0,VALID,95.0398,VALID,0,VALID,23.2848,VALID,42,VALID,0.272656,
2008-08-02, 03:11:05,VALID,1008.19,VALID,0,VALID,94.9864,VALID,0,VALID,23.2459,VALID,42,VALID,0.307813,
2008-08-02, 03:12:05,VALID,1008.21,VALID,0,VALID,94.9864,VALID,0,VALID,23.2459,VALID,42,VALID,0.367578,
2008-08-02, 03:13:05,VALID,1008.22,VALID,0,VALID,95.0093,VALID,0,VALID,23.2671,VALID,42,VALID,0.292969,
2008-08-02, 03:14:05,VALID,1008.22,VALID,0,VALID,94.9864,VALID,0,VALID,23.2069,VALID,42,VALID,0.15,
2008-08-02, 03:15:05,VALID,1008.24,VALID,0,VALID,94.9711,VALID,0,VALID,23.1874,VALID,42,VALID,0,
2008-08-02, 03:16:05,VALID,1008.25,VALID,0,VALID,95.0169,VALID,0,VALID,23.1874,VALID,42,VALID,0,
2008-08-02, 03:17:05,VALID,1008.23,VALID,0,VALID,95.0321,VALID,0.105969,VALID,23.1662,VALID,42,VALID,0,
2008-08-02, 03:18:05,VALID,1008.2,VALID,0,VALID,95.0703,VALID,0.105969,VALID,23.1874,VALID,42,VALID,0,
2008-08-02, 03:19:05,VALID,1008.22,VALID,0,VALID,95.116,VALID,0,VALID,23.1874,VALID,42,VALID,0,
2008-08-02, 03:20:05,VALID,1008.2,VALID,0,VALID,95.1236,VALID,0,VALID,23.1467,VALID,42,VALID,0,
2008-08-02, 03:21:05,VALID,1008.19,VALID,0,VALID,95.1313,VALID,0,VALID,23.1679,VALID,42,VALID,0,
2008-08-02, 03:22:05,VALID,1008.19,VALID,0,VALID,95.1236,VALID,0,VALID,23.1272,VALID,42,VALID,0,
2008-08-02, 03:23:05,VALID,1008.16,VALID,0,VALID,95.1084,VALID,0,VALID,23.129,VALID,42,VALID,0,
2008-08-02, 03:24:05,VALID,1008.13,VALID,0,VALID,95.0855,VALID,0.105969,VALID,23.0883,VALID,42,VALID,0,
2008-08-02, 03:25:05,VALID,1008.15,VALID,0,VALID,95.1389,VALID,0,VALID,23.0883,VALID,42,VALID,0,
2008-08-02, 03:26:05,VALID,1008.15,VALID,0,VALID,95.1847,VALID,0,VALID,23.1077,VALID,42,VALID,0,
2008-08-02, 03:27:05,VALID,1008.15,VALID,0,VALID,95.2152,VALID,0,VALID,23.1485,VALID,42,VALID,0,
2008-08-02, 03:28:05,VALID,1008.14,VALID,0,VALID,95.2304,VALID,0.105969,VALID,23.1272,VALID,42,VALID,0,
2008-08-02, 03:29:05,VALID,1008.17,VALID,0,VALID,95.2304,VALID,0.105969,VALID,23.1077,VALID,42,VALID,0,
2008-08-02, 03:30:05,VALID,1008.16,VALID,0,VALID,95.238,VALID,0,VALID,23.1307,VALID,42,VALID,0,
2008-08-02, 03:31:05,VALID,1008.18,VALID,0,VALID,95.238,VALID,0,VALID,23.1307,VALID,42,VALID,0,
2008-08-02, 03:32:05,VALID,1008.17,VALID,0,VALID,95.2457,VALID,0,VALID,23.1095,VALID,42,VALID,0,
2008-08-02, 03:33:05,VALID,1008.16,VALID,0,VALID,95.238,VALID,0,VALID,23.1095,VALID,42,VALID,0,
2008-08-02, 03:34:05,VALID,1008.17,VALID,0,VALID,95.2762,VALID,0,VALID,23.1095,VALID,42,VALID,0,
2008-08-02, 03:35:05,VALID,1008.18,VALID,0,VALID,95.2685,VALID,0,VALID,23.1095,VALID,42,VALID,0,
2008-08-02, 03:36:05,VALID,1008.16,VALID,0,VALID,95.2457,VALID,0,VALID,23.09,VALID,42,VALID,0,
2008-08-02, 03:37:05,VALID,1008.12,VALID,0,VALID,95.2075,VALID,0,VALID,23.0511,VALID,42,VALID,0,
2008-08-02, 03:38:05,VALID,1008.11,VALID,0,VALID,95.1999,VALID,0,VALID,23.0121,VALID,42,VALID,0,
2008-08-02, 03:39:05,VALID,1008.11,VALID,0,VALID,95.2304,VALID,0,VALID,23.0121,VALID,42,VALID,0,
2008-08-02, 03:40:05,VALID,1008.08,VALID,0,VALID,95.1847,VALID,0,VALID,22.9731,VALID,42,VALID,0,
2008-08-02, 03:41:05,VALID,1008.11,VALID,0,VALID,95.2457,VALID,0,VALID,22.9731,VALID,42,VALID,0,
2008-08-02, 03:42:05,VALID,1008.12,VALID,0,VALID,95.2533,VALID,0,VALID,23.0121,VALID,42,VALID,0,
2008-08-02, 03:43:05,VALID,1008.12,VALID,0,VALID,95.2533,VALID,0,VALID,22.9926,VALID,42,VALID,0,
2008-08-02, 03:44:05,VALID,1008.12,VALID,0,VALID,95.2533,VALID,0,VALID,22.9943,VALID,42,VALID,0,
2008-08-02, 03:45:05,VALID,1008.13,VALID,0,VALID,95.2457,VALID,0,VALID,22.9536,VALID,42,VALID,0,
2008-08-02, 03:46:05,VALID,1008.1,VALID,0,VALID,95.2685,VALID,0,VALID,22.9554,VALID,42,VALID,0,
2008-08-02, 03:47:05,VALID,1008.11,VALID,0,VALID,95.2533,VALID,0,VALID,22.9536,VALID,42,VALID,0,
2008-08-02, 03:48:05,VALID,1008.1,VALID,0,VALID,95.2457,VALID,0,VALID,22.9359,VALID,42,VALID,0,
2008-08-02, 03:49:05,VALID,1008.08,VALID,0,VALID,95.2914,VALID,0,VALID,22.8952,VALID,42,VALID,0,